ATLAS 5 CENTAUR DEB, 46604

Orbit data source: Space-Track

ATLAS 5 CENTAUR DEB, 46604 is space debris in HEO originally from a launch on Wed, 17 Oct 2018 UTC launched from the Air Force Eastern Test Range (AFETR). Debris objects in space refer to the collection of defunct objects orbiting the Earth. Examples of debris include non-operational satellites, rocket bodies, and fragments generated from explosions, collisions, or faulty payload assembly.

Not visible in the next 10 days
Identifier
46604, 2018-079CC
Orbit
HEO
Country
Flag of USUS
Related business
Flag of USUnited Launch Alliance/Lockheed Martin (US)
Manufacturer
ULA Decatur
Mission
Spacecraft
Bus & Motor
Unknown
Mass
Unknown
Launch date (UTC)
2018-10-17 (8 years ago)
Launch vehicle
Unknown
Launch site
Air Force Eastern Test Range (AFETR)
Object type
Payload
Rocket body
Debris
Shape & HBR
Unknown shape, 1.1 m
Radar Cross Section
RCS unknown

Expand to show TLE details & history
Last TLE update: 2 weeks ago

TLE from 2 weeks ago
0 ATLAS 5 CENTAUR DEB
1 46604U 18079CC  26160.84716339 -.00000066  00000-0  00000-0 0  9994
2 46604  13.4464  54.0942 4588327 268.7465  40.1922  1.74516651 41776
Epoch: 2026-06-09T20:19Z
TLE epoch observation values (Epoch: 2026-06-09T20:19:54.916Z)
Latitude
0.00006°
Longitude
-149.16252°
Altitude
16,887.163 km
Speed
4.537 km/s
True Right ascension
03h 36m 07s
True Declination
0° 00' 00"
Sunlit
Object was in daylight at epoch
Visualization orbit readout
Latitude
Unknown
Longitude
Unknown
Altitude
Unknown
Speed
Unknown
Apparent Right ascension
Unknown
Apparent Declination
Unknown
Sunlit
N/A
Visualization observer readout
Local Sidereal Time
21:35:13
Azimuth
Unknown
Elevation
Unknown
Doppler factor
Unknown
Orbital elements
Apogee altitude
36,137.222 km
Perigee altitude
9,393.323 km
Semi-major axis
29,143.41 km
Eccentricity
0.45883
Inclination
13.4464°
RAAN
54.0942°
Arg. of periapsis
268.7465°
True anomaly
91.21764°
Mean anomaly
40.1922°
Eccentric anomaly
63.7754°
Mean motion
0.43625 °/min
Orbital period
825.22 mins
BSTAR
0
Loading maneuver chart data...
Computing Atmospheric mass density...

Documentation

Showing up to 5 results
|